Погода в Павлодаре

Поиск расширенной информации на нашем сайте:

Полезная информация:

Новости сайта



02.01.2020
Опубликован Долгосрочный прогноз погоды по городам России и ближнего зарубежья на январь 2020 года.
Карты: Прогноз на январь и февраль 2020 года, Сравнение прогнозируемой аномалии приземной температуры воздуха на январь 2020 года по разным моделям.




Погода в Павлодаре - сегодня

Время (UTC), дата Ветер
(°,м/с) 
Видим.   Явления Облачность Т
(°С)
Тd
(°С)
f(%) Тe
(°С)
Pmin
(гПа)
dP
(гПа)
Po
(мм)
O2
(г/м3)
Тmin Tmax R s Состояние
почвы
12 27.03.20 350 (С) 10 км  слаб. ливневой дождь  10/10 600 м кучево-дожд. 
[Cb cap]
+2.3 +0.7 89 -1  1019.6  0.1  753  301           
15 27.03.20 280 (З) 10 км  слаб. ливневой снег  10/10 600 м кучево-дожд. 
[Cb cap]
+0.9 -0.2 92 -1  1019.2  -0.4  753  302    +9  0.6     
18 27.03.20 250 (З) 20000 м  {ливн. осадки}  10/10 600 м кучево-дожд. 
[Cb cap]
+0.4 -0.2 96 +1  1018.9  -0.4  753  303    +9  0.6     
21 27.03.20 320 (СЗ) 20000 м    10/10 600 м 
[Sc]
+0.2 -0.4 96 +1  1018.9  753  303           
00 28.03.20 270 (З) 20000 м    10/10 600 м 
[Sc]
-0.5 -0.8 98 1019.4  0.5  753  304           
03 28.03.20 330 (СЗ) 20000 м    6/3 600 м кучево-дожд., средняя 
[Cb cap|Ac trans]
+0.7 -0.7 90 -1  1020.7  1.4  754  303      0.4  <0.5  сухой снег
50-90% 
06 28.03.20 350 (С) 20000 м  {ливн. осадки}  8/6 600 м кучево-дожд., средняя 
[Cb cap|Ac trans]
+4.4 -4.6 52 +3  1021.7  1.1  755  300  -1.1    0.4     
09 28.03.20 320 (СЗ) 20000 м    8/8 600 м кучево-дожд., средняя 
[Cb cap|Ac trans]
+6 -7.1 38 +4  1022  0.4  755  299           
12 28.03.20 350 (С) 20000 м    9/9 600 м кучево-дожд. 
[Cb cap]
+3.2 -7.8 44 +1  1023.4  1.2  756  302           
15 28.03.20 320 (СЗ) 20000 м    8/3 1000 м средняя 
[Sc|Ac trans]
+0.2 -3.9 74 -1  1025.5  1.9  758  306    +6.5  0.0     
18 28.03.20 310 (СЗ) 20000 м    8/0 средняя 
[Ac trans]
-1.7 -4 84 -1  1026.7  1.1  759  308    +6.5  0.0     
21 28.03.20 тихо ()   20000 м    8/0 средняя 
[Ac trans]
-2 -4 86 -2  1027.2  0.5  759  309           
00 29.03.20 200 (Ю) 20000 м    3/0 верхняя 
[Ci fib]
-4.8 -6.1 91 -4  1028.4  760  312           
03 29.03.20 290 (З) 20000 м    ясно 
-0.2 -3 81 1029.6  1.4  761  307           
06 29.03.20 280 (З) 20000 м    4/4 1000 м 
[Cu med, cong]
+5.7 -5.9 43 +4  1029.7  0.4  761  301  -5.1         
09 29.03.20 270 (З) 20000 м    3/3 1000 м верхняя 
[Cu med, cong|Ci fib]
+7.3 -6.7 36 +6  1028.9  -0.6  761  299           
12 29.03.20 290 (З) 20000 м    1/1 1000 м 
[Cu hum]
+7.1 -6.6 37 +6  1028.5  -0.4  760  299           
15 29.03.20 190 (Ю) 20000 м    ясно 
+0 -5.2 68 +1  1029.3  0.3  761  307    +8       
18 29.03.20 180 (Ю) 20000 м    ясно 
-2.6 -5.2 82 -2  1029.7  0.3  761  310    +8       
21 29.03.20 тихо ()   20000 м    ясно 
-3.4 -5.9 83 -3  1030.1  0.4  761  311           
00 30.03.20 тихо ()   20000 м    3/0 верхняя 
[Ci fib]
-4.8 -6.1 91 -5  1031.1  0.8  762  313           
03 30.03.20 280 (З) 20000 м    ясно 
+1.2 -2.4 77 +2  1031.1  0.4  762  306           
06 30.03.20 230 (ЮЗ) 20000 м    ясно 
+8.4 -6.1 35 +8  1030.8  0.1  762  299  -5         
09 30.03.20 270 (З) 20000 м    ясно 
+10.5 -7.3 28 +10  1029.3  -1.4  761  296           
12 30.03.20 200 (Ю) 20000 м    3/0 верхняя 
[Ci fib]
+9.5 -6.4 32 +9  1028.8  -0.6  761  297           
Время (UTC), дата Ветер
(°,м/с) 
Видим.   Явления Облачность Т
(°С)
Тd
(°С)
f(%) Тe
(°С)
Pmin
(гПа)
dP
(гПа)
Po
(мм)
O2
(г/м3)
Тmin Tmax R s Состояние
почвы

Для получения пояснительной информации подведите курсор к названию столбца.

ПОГОДА в Павлодаре - архив

Всё, что Вы хотите узнать о погоде в Павлодаре - удобно и подробно!

Выберите нужную дату (начиная с 1 января 2019* года) и нажмите кнопку "Найти".
Будут отображены архивные сводки погоды по пункту Павлодар, начиная с указанной даты.


Отображать данные в формате CSV (для использования в таблицах Excel)


Внимание! Наш архив погоды предназначен исключительно для личного некоммерческого использования в познавательных целях. Если Вам необходимы официальные справки о состоянии погоды (для производственных, юридических, коммерческих и т.п. целей), обращайтесь в органы Росгидромета.

*Примечание: данная дата относится к архиву по метеостанциям СССР (Россия, СНГ, Балтия).
Архив по метеостанциям Зарубежной Европы и Азии (кроме Китая) хранится 10 дней, по другим регионам земного шара (Китай, Африка, Америка, Австралия, Океания) - 1 день.

Павлодар - район местоположения метеостанции


Название, широта, долгота, высота метеостанции:
Павлодар 52.1°ш. 77.1°д. 125 м над ур. моря [Казахстан]

Дополнительная информация

В oтличие oт бoльшинства пoгoдных сайтoв мы публикуем пoдрoбную метеoинфoрмацию в детальнoм прoфессиoнальнoм фoрмате.

Характеристики температуры и влажнoсти вoздуха измеряются на высoте 2 м в тени вдали oт зданий и деревьев.
Скoрoсть ветра измеряется на высoте 10 м (на урoвне рoста челoвека скoрoсть ветра ниже в 1.5-2 раза). Если метеoстанция нахoдится в гoрoде или в лесу, тo скoрoсть ветра занижена на 2-4 м/с пo сравнению с oткрытым местoм. Скoрoсть ветра над акватoриями крупных рек и oзёр, а также на вершинах хoлмoв на 2-5 м/с выше, чем в oбычных услoвиях.
Атмoсфернoе давление в разных тoчках местнoсти мoжет значительнo oтличаться oт давления на метеoстанции, в зависимoсти oт услoвий рельефа (при пoдъёме на 10 м давление пoнижается примернo на 1 мм рт.ст.).